Home > Weather > St. Wendel > Past weeks

Flag for Germany Weather for the Past 2 Weeks in St. Wendel, Saarland, Germany

Now
41 °F

Light rain. Passing clouds.


Feels Like: 35 °F
Forecast: 40 / 63 °F
Wind: 9 mph from Northeast

Location: Saarbruecken / Ensheim

Current Time: May 1, 2016 at 7:23:02 AM

Latest Report: May 1, 2016 at 6:20 AM


Visibility: 4 mi

Pressure: 30.04 "Hg

Humidity: 93%

Dew Point: 39 °F

Location of St. WendelLocation

Historic Weather in St. Wendel — Graph

°F

St. Wendel Temperature Yesterday

Maximum temperature yesterday: 57 °F (at 3:20 PM)
Minimum temperature yesterday: 39 °F (at 6:50 AM)
Average temperature yesterday: 47 °F

High & Low Weather Summary for the Past Weeks

 TemperatureHumidityPressure
High70 °F (Apr 21, 4:50 PM)100% (Apr 25, 1:20 AM)30.39 "Hg (Apr 25, 1:20 AM)
Low28 °F (Apr 24, 6:20 AM)20% (Apr 21, 5:50 PM)29.56 "Hg (Apr 26, 3:20 AM)
Average45 °F70%29.98 "Hg
* Reported Apr 16 6:20 AM — May 1 6:20 AM, St. Wendel, Weather by CustomWeather, © 2016

Note: Actual official high and low records may vary slightly from our data, if they occured in-between our weather recording intervals... More about our weather records

Advertising

St. Wendel Weather History for the Previous 24 Hours

Scroll right to see more
 ConditionsComfort  
Time TempWeatherWind HumidityBarometerVisibility
6:20 AM
Sun, May 1
41 °FLight rain. Passing clouds.9 mph93%30.04 "Hg4 mi
5:50 AM39 °FLight rain. Partly cloudy.12 mph93%30.04 "HgN/A
5:20 AM39 °FLight rain. Partly cloudy.13 mph93%30.04 "HgN/A
4:20 AM39 °FRain. Mostly cloudy.16 mph93%30.04 "Hg5 mi
3:50 AM39 °FRain. Passing clouds.14 mph93%30.04 "Hg5 mi
3:20 AM39 °FPassing clouds.16 mph93%30.04 "Hg6 mi
2:50 AM41 °FPassing clouds.15 mph87%30.04 "Hg3 mi
2:20 AM41 °FPassing clouds.15 mph93%30.04 "Hg4 mi
1:50 AM41 °FPassing clouds.13 mph93%30.04 "Hg4 mi
1:20 AM41 °FPassing clouds.13 mph93%30.04 "Hg3 mi
12:50 AM41 °FPartly cloudy.9 mph93%30.04 "Hg4 mi
12:20 AM41 °FPassing clouds.13 mph93%30.04 "Hg6 mi
11:50 PM
Sat, Apr 30
43 °FPassing clouds.13 mph87%30.04 "HgN/A
11:20 PM43 °FPassing clouds.13 mph87%30.04 "HgN/A
10:50 PM43 °FLight rain. Passing clouds.13 mph87%30.04 "HgN/A
10:20 PM43 °FLight rain. Passing clouds.12 mph93%30.04 "HgN/A
9:50 PM43 °FLight rain. Passing clouds.12 mph93%30.04 "HgN/A
9:20 PM45 °FLight rain. Partly sunny.12 mph87%30.04 "HgN/A
8:50 PM45 °FLight rain. Partly sunny.9 mph87%30.01 "HgN/A
8:20 PM46 °FLight rain. Mostly cloudy.12 mph82%30.01 "HgN/A
7:50 PM46 °FLight rain. Mostly cloudy.8 mph82%30.01 "HgN/A
7:20 PM48 °FLight rain. Mostly cloudy.12 mph76%30.01 "HgN/A
6:50 PM48 °FLight rain. Mostly cloudy.10 mph71%29.98 "HgN/A
6:20 PM50 °FLight rain. Mostly cloudy.9 mph67%29.98 "HgN/A
5:50 PM52 °FLight rain. More clouds than sun.13 mph62%29.98 "HgN/A
5:20 PM54 °FMore clouds than sun.10 mph58%29.98 "HgN/A
4:50 PM54 °FMore clouds than sun.10 mph58%29.95 "HgN/A
4:20 PM55 °FMore clouds than sun.8 mph55%29.95 "HgN/A
3:50 PM57 °FBroken clouds.6 mph44%29.98 "HgN/A
3:20 PM57 °FBroken clouds.7 mph44%29.98 "HgN/A
2:50 PM55 °FBroken clouds.5 mph44%29.98 "HgN/A
2:20 PM55 °FPartly sunny.7 mph47%29.98 "HgN/A
1:50 PM55 °FLight rain. Partly sunny.5 mph41%29.98 "HgN/A
1:20 PM55 °FPartly sunny.3 mph47%30.01 "HgN/A
12:50 PM54 °FPartly sunny.5 mph44%30.01 "HgN/A
12:20 PM54 °FPartly sunny.3 mph47%30.01 "HgN/A
11:20 AM50 °FSunny.2 mph58%30.01 "Hg10 mi
10:20 AM50 °FSunny.1 mph54%30.01 "Hg10 mi
9:50 AM48 °FPassing clouds.5 mph58%30.01 "HgN/A
9:20 AM48 °FPassing clouds.5 mph58%30.01 "HgN/A
8:50 AM48 °FPassing clouds.3 mph58%30.01 "HgN/A
8:20 AM46 °FSunny.2 mph66%30.01 "Hg10 mi
7:50 AM43 °FSunny.3 mph71%30.01 "Hg10 mi
7:20 AM41 °FSunny.1 mph76%30.01 "Hg10 mi
Weather by CustomWeather, © 2016

See weather overviewHow to use our weather pages